Regional Weather Roundup
Issued by NWS Albany, NY

Home | Current Version | Previous Version | Text Only | Print | Product List | Glossary On
Versions: 1 2 3 4 5 6 7 8 9 10 11 12 13 14 15 16 17 18 19 20 21 22 23 24 25 26 27 28 29 30 31 32 33 34 35 36 37 38 39 40 41 42 43 44 45 46 47 48 49 50
000
ASUS41 KALY 021210
RWRALY

NEW YORK STATE HOURLY WEATHER ROUNDUP
NATIONAL WEATHER SERVICE ALBANY NY
800 AM EDT WED SEP 02 2015

NOTE: "FAIR" INDICATES FEW OR NO CLOUDS BELOW 12,000 FEET WITH NO
SIGNIFICANT WEATHER AND/OR NO OBSTRUCTIONS TO VISIBILITY.

NYZ032-033-038>043-046>054-057>066-NYZ062>081-021300-
EAST


CITY           SKY/WX    TMP DP  RH WIND       PRES   REMARKS
ALBANY         MOSUNNY   67  62  84 S3        30.03F
GLENS FALLS    FOG       64  62  93 S5        30.03S VSB 1/4
POUGHKEEPSIE   SUNNY     65  60  84 CALM      30.04R
NEWBURGH       MOSUNNY   68  66  94 CALM      30.06R
MONTGOMERY     SUNNY     65  63  93 CALM      30.05R
WHITE PLAINS   MOSUNNY   71  67  87 CALM      30.04S FOG
ISLIP          FOG       71  70  96 CALM      30.03S VSB 1/8
NEW YORK CITY  MOSUNNY   76  67  73 S3        30.03R
CENTRAL PARK   SUNNY     78  66  66 CALM      30.06R HAZE
$$

NYZ005>009-017-018-044>046-055-056-021300-
CENTRAL


CITY           SKY/WX    TMP DP  RH WIND       PRES   REMARKS
FULTON         FOG       66  64  93 CALM      30.05R VSB 1/4
SYRACUSE       MOSUNNY   63  63 100 E3        30.04S FOG
ROME           FOG       62  60  93 CALM      30.06S VSB 1
ELMIRA         FOG       64  64 100 SW7       30.08R VSB 1
BINGHAMTON     FOG       63  63 100 CALM      30.09S VSB 1/2
MONTICELLO     SUNNY     61  61 100 CALM      30.10S
$$

NYZ026>034-041>043-021300-
NORTH


CITY           SKY/WX    TMP DP  RH WIND       PRES   REMARKS
WATERTOWN      PTSUNNY   69  67  93 SW5       30.03R FOG
FORT DRUM      NOT AVBL
MASSENA        CLOUDY    68  66  93 SW8       30.01S FOG
SARANAC LAKE   CLOUDY    62  61  96 SW5       30.06S FOG
PLATTSBURGH    SUNNY     64  62  93 CALM      29.99S
$$

NYZ001>004-010>016-019>021-021300-
WEST


CITY           SKY/WX    TMP DP  RH WIND       PRES   REMARKS
NIAGARA FALLS  PTSUNNY   69  68  96 S3        30.05R FOG
BUFFALO        SUNNY     68  65  90 S5        30.06S FOG
DUNKIRK        SUNNY     70  65  84 S5        30.07R
JAMESTOWN      MOSUNNY   63  61  94 S3        30.13R
WELLSVILLE     FOG       63  61  93 CALM      30.15R VSB 1/4
ROCHESTER      MOSUNNY   67  65  93 SW6       30.05S FOG
PENN YAN       SUNNY     68  66  93 SW3       30.07S FOG
$$

             KEY
       WCI = WIND CHILL INDEX
       VSB = VISIBILITY
       HX  = HEAT INDEX
$$


USA.gov is the U.S. government's official web portal to all federal, state and local government web resources and services.